Russell, KS

4:37 PM CDT on June 22, 2017 (GMT -0500)
Russell Municipal

Weather History for KRSL - April, 2014

Change the Weather History Date:

Sunday, April 20, 2014

  Actual Average Record
Temperature  
Mean Temperature 67 °F -  
Max Temperature 77 °F 66 °F 90 °F (1980)
Min Temperature 59 °F 42 °F 23 °F (1953)
Cooling Degree Days 2    
Growing Degree Days 17 (Base 50)    
Moisture  
Dew Point 52 °F    
Average Humidity 60    
Maximum Humidity 83    
Minimum Humidity 46    
Precipitation  
Precipitation 0.00 in - - ()
Sea Level Pressure  
Sea Level Pressure 29.93 in    
Wind  
Wind Speed 16 mph (South)    
Max Wind Speed 25 mph    
Max Gust Speed 33 mph    
Visibility 10 miles    
Events      
Averages and records for this station are not official NWS values.
T = Trace of Precipitation, MM = Missing Value Source: NWS Daily Summary

Daily Weather History Graph

Daily Weather History Graph

Search for Another Location

Airport or City:

Trip Planner

Search our weather history database for the weather conditions in past years. The results will help you decide how hot, cold, wet, or windy it might be!

Date:

Astronomy

Apr. 20, 2014 Rise Set
Actual Time 6:51 AM CDT 8:17 PM CDT
Civil Twilight 6:23 AM CDT 8:45 PM CDT
Nautical Twilight 5:50 AM CDT 9:18 PM CDT
Astronomical Twilight 5:15 AM CDT 9:54 PM CDT
Moon 12:57 AM CDT (4/20) 11:14 AM CDT (4/20)
Length of Visible Light 14h 21m
Length of Day
13h 25m
Waning Gibbous, 68% of the Moon is Illuminated
Apr 20
Waning Gibbous
Apr 22
Last Quarter
Apr 29
New
May 6
First Quarter
May 14
Full

Hourly Weather History & Observations

Time (CDT) Temp. Dew Point Humidity Pressure Visibility Wind Dir Wind Speed Gust Speed Precip Events Conditions
12:53 AM 61.0 °F 48.9 °F 64% 29.94 in 10.0 mi SSW 11.5 mph - N/A   Clear
1:53 AM 63.0 °F 48.9 °F 60% 29.94 in 10.0 mi South 18.4 mph - N/A   Clear
2:53 AM 61.0 °F 48.9 °F 64% 29.94 in 10.0 mi South 13.8 mph - N/A   Clear
3:53 AM 60.1 °F 48.9 °F 67% 29.94 in 10.0 mi South 15.0 mph - N/A   Clear
4:53 AM 60.1 °F 48.9 °F 67% 29.94 in 10.0 mi South 16.1 mph - N/A   Clear
5:53 AM 59.0 °F 48.9 °F 69% 29.94 in 10.0 mi South 13.8 mph - N/A   Clear
6:53 AM 60.1 °F 50.0 °F 69% 29.95 in 10.0 mi South 15.0 mph - N/A   Clear
7:53 AM 61.0 °F 50.0 °F 67% 29.97 in 10.0 mi South 13.8 mph - N/A   Partly Cloudy
8:53 AM 63.0 °F 50.0 °F 63% 29.97 in 10.0 mi South 16.1 mph - N/A   Clear
9:53 AM 68.0 °F 51.1 °F 55% 29.96 in 10.0 mi South 19.6 mph - N/A   Clear
10:53 AM 72.0 °F 51.1 °F 48% 29.98 in 10.0 mi South 23.0 mph - 0.00 in   Scattered Clouds
11:53 AM 71.1 °F 52.0 °F 51% 29.97 in 10.0 mi South 17.3 mph - N/A   Mostly Cloudy
12:53 PM 72.0 °F 52.0 °F 49% 29.96 in 10.0 mi South 19.6 mph - N/A   Scattered Clouds
1:53 PM 73.9 °F 54.0 °F 50% 29.95 in 10.0 mi SSW 12.7 mph - 0.00 in   Mostly Cloudy
2:53 PM 70.0 °F 55.0 °F 59% 29.94 in 10.0 mi South 16.1 mph - 0.00 in   Scattered Clouds
3:53 PM 73.0 °F 52.0 °F 48% 29.91 in 10.0 mi SSE 20.7 mph - N/A   Clear
4:53 PM 75.0 °F 54.0 °F 48% 29.89 in 10.0 mi SSE 20.7 mph 28.8 mph N/A   Clear
5:53 PM 75.9 °F 54.0 °F 46% 29.87 in 10.0 mi South 25.3 mph 31.1 mph N/A   Partly Cloudy
6:53 PM 72.0 °F 53.1 °F 51% 29.88 in 10.0 mi SSE 25.3 mph 33.4 mph N/A   Clear
7:53 PM 69.1 °F 55.9 °F 63% 29.88 in 10.0 mi SSE 18.4 mph - N/A   Clear
8:53 PM 66.9 °F 55.9 °F 68% 29.90 in 10.0 mi SSE 16.1 mph - N/A   Clear
9:53 PM 66.0 °F 55.9 °F 70% 29.91 in 10.0 mi South 15.0 mph - N/A   Partly Cloudy
10:53 PM 64.9 °F 55.0 °F 70% 29.93 in 10.0 mi South 5.8 mph - N/A   Mostly Cloudy
11:53 PM 59.0 °F 54.0 °F 83% 29.95 in 10.0 mi NW 11.5 mph - N/A   Scattered Clouds